| time (UTC) | temp F | wind direction | speed MPH | gust MPH | rain 1hr in | rain 24hr in | rain mn in | humidity % | barometer mb |
| 20260507062542 | 39 | 28 | 4.0 | 10.0 | 0.00 | 0.01 | 0.00 | 72 | 1020.9 |
| 20260507062042 | 39 | 32 | 5.0 | 10.0 | 0.00 | 0.01 | 0.00 | 72 | 1020.9 |
| 20260507061545 | 39 | 26 | 4.0 | 9.0 | 0.00 | 0.01 | 0.00 | 72 | 1020.9 |
| 20260507061041 | 39 | 28 | 5.0 | 9.0 | 0.00 | 0.01 | 0.00 | 72 | 1020.8 |
| 20260507060541 | 39 | 21 | 5.0 | 9.0 | 0.00 | 0.01 | 0.00 | 72 | 1020.8 |
| 20260507060049 | 39 | 39 | 5.0 | 9.0 | 0.00 | 0.01 | 0.00 | 72 | 1020.7 |
| 20260507055542 | 39 | 34 | 6.0 | 9.0 | 0.00 | 0.01 | 0.01 | 73 | 1020.7 |
| 20260507055042 | 39 | 19 | 6.0 | 9.0 | 0.00 | 0.01 | 0.01 | 73 | 1020.7 |
| 20260507054548 | 39 | 17 | 5.0 | 9.0 | 0.00 | 0.01 | 0.01 | 73 | 1020.6 |
| 20260507054041 | 39 | 9 | 5.0 | 9.0 | 0.00 | 0.01 | 0.01 | 72 | 1020.5 |
| 20260507053542 | 39 | 5 | 5.0 | 9.0 | 0.00 | 0.01 | 0.01 | 72 | 1020.6 |
| 20260507053049 | 39 | 28 | 5.0 | 11.0 | 0.00 | 0.01 | 0.01 | 72 | 1020.6 |
| 20260507052542 | 39 | 5 | 5.0 | 11.0 | 0.00 | 0.01 | 0.01 | 71 | 1020.5 |
| 20260507052041 | 39 | 5 | 6.0 | 10.0 | 0.00 | 0.01 | 0.01 | 71 | 1020.5 |
| 20260507051554 | 39 | 5 | 7.0 | 10.0 | 0.00 | 0.01 | 0.01 | 70 | 1020.5 |
| 20260507051042 | 39 | 26 | 6.0 | 10.0 | 0.00 | 0.01 | 0.01 | 68 | 1020.5 |
| 20260507050546 | 39 | 13 | 6.0 | 9.0 | 0.00 | 0.01 | 0.01 | 67 | 1020.4 |
| 20260507050050 | 40 | 5 | 3.0 | 6.0 | 0.00 | 0.01 | 0.01 | 66 | 1020.4 |
| 20260507045542 | 40 | 343 | 3.0 | 6.0 | 0.00 | 0.02 | 0.01 | 66 | 1020.4 |
| 20260507045042 | 40 | 331 | 3.0 | 5.0 | 0.00 | 0.02 | 0.01 | 65 | 1020.4 |
| 20260507044550 | 41 | 5 | 2.0 | 4.0 | 0.00 | 0.02 | 0.01 | 64 | 1020.2 |
| 20260507044041 | 41 | 346 | 3.0 | 5.0 | 0.00 | 0.02 | 0.01 | 64 | 1020.2 |
| 20260507043542 | 41 | 16 | 3.0 | 5.0 | 0.00 | 0.02 | 0.01 | 64 | 1020.2 |
| 20260507043049 | 41 | 5 | 3.0 | 5.0 | 0.00 | 0.02 | 0.01 | 62 | 1020.1 |
| 20260507042542 | 42 | 338 | 3.0 | 5.0 | 0.00 | 0.02 | 0.01 | 61 | 1020.0 |
| 20260507042041 | 42 | 312 | 3.0 | 6.0 | 0.00 | 0.02 | 0.01 | 60 | 1019.9 |
| 20260507041549 | 43 | 329 | 2.0 | 8.0 | 0.00 | 0.02 | 0.01 | 59 | 1019.9 |
| 20260507041045 | 43 | 324 | 4.0 | 8.0 | 0.00 | 0.02 | 0.01 | 57 | 1019.8 |
| 20260507040542 | 44 | 323 | 4.0 | 6.0 | 0.00 | 0.02 | 0.01 | 55 | 1019.7 |
| 20260507040051 | 44 | 307 | 3.0 | 5.0 | 0.00 | 0.02 | 0.01 | 53 | 1019.6 |
| 20260507035542 | 44 | 344 | 2.0 | 8.0 | 0.00 | 0.04 | 0.01 | 52 | 1019.5 |
| 20260507035042 | 44 | 344 | 3.0 | 8.0 | 0.00 | 0.04 | 0.01 | 52 | 1019.5 |
| 20260507034547 | 45 | 360 | 3.0 | 6.0 | 0.00 | 0.04 | 0.01 | 51 | 1019.4 |
| 20260507034042 | 45 | 324 | 3.0 | 9.0 | 0.00 | 0.04 | 0.01 | 50 | 1019.3 |
| 20260507033542 | 45 | 334 | 3.0 | 9.0 | 0.00 | 0.04 | 0.01 | 49 | 1019.3 |
| 20260507033055 | 46 | 288 | 3.0 | 5.0 | 0.00 | 0.04 | 0.01 | 49 | 1019.3 |
| 20260507032543 | 46 | 313 | 3.0 | 5.0 | 0.00 | 0.04 | 0.01 | 48 | 1019.1 |
| 20260507032041 | 46 | 319 | 3.0 | 11.0 | 0.00 | 0.04 | 0.01 | 47 | 1019.1 |
| 20260507031556 | 46 | 319 | 3.0 | 11.0 | 0.00 | 0.04 | 0.01 | 47 | 1018.9 |
| 20260507031044 | 47 | 311 | 1.0 | 5.0 | 0.00 | 0.04 | 0.01 | 46 | 1018.9 |
| 20260507030541 | 47 | 236 | 1.0 | 5.0 | 0.00 | 0.04 | 0.01 | 45 | 1018.7 |
| 20260507030053 | 47 | 246 | 1.0 | 4.0 | 0.00 | 0.04 | 0.01 | 45 | 1018.6 |
| 20260507025546 | 47 | 234 | 1.0 | 4.0 | 0.00 | 0.09 | 0.01 | 45 | 1018.4 |
| 20260507025047 | 48 | 219 | 1.0 | 4.0 | 0.00 | 0.09 | 0.01 | 44 | 1018.3 |
| 20260507024551 | 48 | 0 | 1.0 | 4.0 | 0.00 | 0.09 | 0.01 | 44 | 1018.2 |
| 20260507024045 | 48 | 222 | 1.0 | 4.0 | 0.00 | 0.09 | 0.01 | 44 | 1018.0 |
| 20260507023549 | 49 | 229 | 2.0 | 4.0 | 0.00 | 0.09 | 0.01 | 43 | 1018.0 |
| 20260507023046 | 49 | 236 | 1.0 | 6.0 | 0.00 | 0.09 | 0.01 | 43 | 1017.9 |
| 20260507022545 | 49 | 240 | 2.0 | 7.0 | 0.00 | 0.09 | 0.01 | 43 | 1017.7 |
| 20260507022042 | 50 | 258 | 3.0 | 7.0 | 0.00 | 0.09 | 0.01 | 42 | 1017.7 |
| 20260507021549 | 50 | 286 | 3.0 | 8.0 | 0.00 | 0.09 | 0.01 | 42 | 1017.7 |
| 20260507021041 | 50 | 271 | 3.0 | 8.0 | 0.00 | 0.09 | 0.01 | 41 | 1017.6 |
| 20260507020542 | 51 | 267 | 3.0 | 10.0 | 0.00 | 0.09 | 0.01 | 41 | 1017.5 |
| 20260507020104 | 51 | 250 | 4.0 | 10.0 | 0.00 | 0.09 | 0.01 | 40 | 1017.6 |
| 20260507015541 | 52 | 282 | 4.0 | 14.0 | 0.00 | 0.09 | 0.01 | 39 | 1017.5 |
| 20260507015041 | 52 | 267 | 7.0 | 14.0 | 0.00 | 0.09 | 0.01 | 38 | 1017.3 |
| 20260507014603 | 53 | 259 | 8.0 | 13.0 | 0.00 | 0.09 | 0.01 | 38 | 1017.3 |
| 20260507014041 | 53 | 277 | 6.0 | 14.0 | 0.00 | 0.09 | 0.01 | 37 | 1017.2 |
| 20260507013541 | 53 | 267 | 7.0 | 14.0 | 0.00 | 0.09 | 0.01 | 37 | 1017.1 |
| 20260507013052 | 54 | 267 | 7.0 | 16.0 | 0.00 | 0.09 | 0.01 | 37 | 1017.2 |
| 20260507012542 | 54 | 306 | 8.0 | 16.0 | 0.00 | 0.09 | 0.01 | 37 | 1017.2 |
| 20260507012044 | 55 | 282 | 8.0 | 16.0 | 0.00 | 0.09 | 0.01 | 36 | 1017.0 |
| 20260507011550 | 55 | 287 | 7.0 | 15.0 | 0.00 | 0.09 | 0.01 | 36 | 1017.0 |
| 20260507011042 | 54 | 286 | 9.0 | 21.0 | 0.00 | 0.09 | 0.01 | 36 | 1017.0 |
| 20260507010542 | 54 | 277 | 10.0 | 23.0 | 0.00 | 0.09 | 0.01 | 36 | 1016.9 |
| 20260507010050 | 54 | 283 | 14.0 | 25.0 | 0.00 | 0.09 | 0.01 | 36 | 1017.0 |
| 20260507005542 | 54 | 287 | 14.0 | 25.0 | 0.00 | 0.09 | 0.01 | 36 | 1017.0 |
| 20260507005042 | 55 | 287 | 9.0 | 22.0 | 0.00 | 0.09 | 0.01 | 37 | 1016.7 |
| 20260507004551 | 55 | 309 | 13.0 | 24.0 | 0.00 | 0.09 | 0.01 | 36 | 1016.5 |
| 20260507004041 | 55 | 342 | 11.0 | 24.0 | 0.00 | 0.09 | 0.01 | 36 | 1016.3 |
| 20260507003542 | 55 | 314 | 12.0 | 23.0 | 0.00 | 0.09 | 0.01 | 36 | 1016.2 |
| 20260507003050 | 55 | 299 | 11.0 | 23.0 | 0.00 | 0.09 | 0.01 | 37 | 1016.1 |
| 20260507002541 | 56 | 323 | 11.0 | 23.0 | 0.00 | 0.09 | 0.01 | 37 | 1016.0 |
| 20260507002042 | 56 | 313 | 12.0 | 23.0 | 0.00 | 0.09 | 0.01 | 37 | 1015.9 |
| 20260507001554 | 56 | 304 | 12.0 | 22.0 | 0.00 | 0.09 | 0.01 | 39 | 1015.8 |
| 20260507001041 | 55 | 307 | 8.0 | 15.0 | 0.00 | 0.09 | 0.01 | 44 | 1015.7 |
| 20260507000546 | 55 | 285 | 7.0 | 23.0 | 0.00 | 0.09 | 0.01 | 48 | 1015.6 |
| 20260507000051 | 56 | 289 | 6.0 | 23.0 | 0.00 | 0.09 | 0.01 | 49 | 1015.6 |
| 20260506235541 | 57 | 305 | 12.0 | 23.0 | 0.00 | 0.09 | 0.01 | 37 | 1015.7 |
| 20260506235044 | 58 | 313 | 7.0 | 14.0 | 0.00 | 0.09 | 0.01 | 35 | 1015.5 |
| 20260506234556 | 58 | 300 | 9.0 | 15.0 | 0.00 | 0.09 | 0.01 | 34 | 1015.5 |
| 20260506234041 | 59 | 271 | 9.0 | 17.0 | 0.00 | 0.09 | 0.01 | 34 | 1015.3 |
| 20260506233542 | 59 | 274 | 7.0 | 21.0 | 0.00 | 0.09 | 0.01 | 34 | 1015.3 |
| 20260506233057 | 58 | 309 | 7.0 | 21.0 | 0.00 | 0.09 | 0.01 | 35 | 1015.4 |
| 20260506232543 | 58 | 286 | 8.0 | 17.0 | 0.00 | 0.09 | 0.01 | 36 | 1015.3 |
| 20260506232042 | 57 | 224 | 9.0 | 16.0 | 0.00 | 0.09 | 0.01 | 37 | 1015.3 |
| 20260506231557 | 56 | 283 | 6.0 | 12.0 | 0.00 | 0.09 | 0.01 | 40 | 1015.2 |
| 20260506231042 | 56 | 301 | 6.0 | 12.0 | 0.00 | 0.09 | 0.01 | 40 | 1015.2 |
| 20260506230542 | 56 | 313 | 6.0 | 11.0 | 0.00 | 0.09 | 0.01 | 40 | 1015.3 |
| 20260506230056 | 56 | 313 | 4.0 | 9.0 | 0.00 | 0.09 | 0.01 | 40 | 1015.2 |
| 20260506225542 | 56 | 309 | 4.0 | 12.0 | 0.00 | 0.09 | 0.01 | 41 | 1015.3 |
| 20260506225042 | 56 | 307 | 4.0 | 12.0 | 0.00 | 0.09 | 0.01 | 41 | 1015.3 |
| 20260506224552 | 55 | 259 | 4.0 | 12.0 | 0.00 | 0.09 | 0.01 | 44 | 1015.3 |
| 20260506224041 | 54 | 309 | 5.0 | 14.0 | 0.00 | 0.09 | 0.01 | 46 | 1015.3 |
| 20260506223542 | 53 | 297 | 6.0 | 23.0 | 0.00 | 0.09 | 0.01 | 47 | 1015.3 |
| 20260506223055 | 53 | 287 | 11.0 | 24.0 | 0.00 | 0.09 | 0.01 | 48 | 1015.3 |
| 20260506222541 | 54 | 261 | 13.0 | 24.0 | 0.00 | 0.09 | 0.01 | 47 | 1015.3 |
| 20260506222041 | 55 | 329 | 11.0 | 28.0 | 0.00 | 0.09 | 0.01 | 47 | 1015.4 |
| 20260506221548 | 57 | 273 | 13.0 | 28.0 | 0.00 | 0.09 | 0.01 | 43 | 1015.2 |
| 20260506221041 | 58 | 282 | 17.0 | 28.0 | 0.00 | 0.09 | 0.01 | 41 | 1014.9 |
| 20260506220541 | 59 | 299 | 11.0 | 18.0 | 0.00 | 0.09 | 0.01 | 38 | 1014.7 |
| 20260506220052 | 59 | 312 | 11.0 | 26.0 | 0.00 | 0.09 | 0.01 | 39 | 1014.4 |
| 20260506215542 | 58 | 323 | 11.0 | 26.0 | 0.00 | 0.09 | 0.01 | 41 | 1014.4 |
| 20260506215042 | 58 | 314 | 10.0 | 28.0 | 0.00 | 0.09 | 0.01 | 38 | 1014.4 |
| 20260506214552 | 59 | 284 | 14.0 | 28.0 | 0.00 | 0.09 | 0.01 | 35 | 1014.4 |
| 20260506214042 | 61 | 271 | 12.0 | 19.0 | 0.00 | 0.09 | 0.01 | 32 | 1014.3 |
| 20260506213544 | 62 | 272 | 6.0 | 20.0 | 0.00 | 0.09 | 0.01 | 33 | 1014.2 |
| 20260506213104 | 62 | 215 | 6.0 | 22.0 | 0.00 | 0.09 | 0.01 | 33 | 1014.2 |
| 20260506212542 | 62 | 240 | 11.0 | 22.0 | 0.00 | 0.09 | 0.01 | 32 | 1014.2 |
| 20260506212042 | 62 | 238 | 11.0 | 21.0 | 0.00 | 0.09 | 0.01 | 33 | 1014.3 |
| 20260506211604 | 61 | 256 | 11.0 | 17.0 | 0.00 | 0.09 | 0.01 | 33 | 1014.3 |
| 20260506211041 | 61 | 209 | 8.0 | 19.0 | 0.00 | 0.09 | 0.01 | 34 | 1014.2 |
| 20260506210542 | 61 | 221 | 12.0 | 23.0 | 0.00 | 0.09 | 0.01 | 34 | 1014.3 |
| 20260506210050 | 60 | 265 | 13.0 | 23.0 | 0.00 | 0.09 | 0.01 | 35 | 1014.3 |
| 20260506205542 | 61 | 252 | 12.0 | 22.0 | 0.00 | 0.09 | 0.01 | 33 | 1014.2 |
| 20260506205042 | 62 | 301 | 12.0 | 20.0 | 0.00 | 0.09 | 0.01 | 32 | 1014.2 |
| 20260506204556 | 61 | 175 | 5.0 | 17.0 | 0.00 | 0.09 | 0.01 | 35 | 1014.1 |
| 20260506204042 | 62 | 250 | 9.0 | 17.0 | 0.00 | 0.09 | 0.01 | 33 | 1014.2 |
| 20260506203542 | 61 | 231 | 9.0 | 17.0 | 0.00 | 0.09 | 0.01 | 34 | 1014.2 |
| 20260506203053 | 60 | 281 | 7.0 | 15.0 | 0.00 | 0.09 | 0.01 | 36 | 1014.1 |
| 20260506202542 | 60 | 257 | 8.0 | 18.0 | 0.00 | 0.09 | 0.01 | 36 | 1014.3 |
| 20260506202045 | 59 | 237 | 9.0 | 18.0 | 0.00 | 0.09 | 0.01 | 37 | 1014.3 |
| 20260506201600 | 60 | 263 | 8.0 | 21.0 | 0.00 | 0.09 | 0.01 | 36 | 1014.3 |
| 20260506201042 | 60 | 264 | 10.0 | 21.0 | 0.00 | 0.09 | 0.01 | 35 | 1014.4 |
| 20260506200542 | 61 | 248 | 9.0 | 21.0 | 0.00 | 0.09 | 0.01 | 34 | 1014.3 |
| 20260506200059 | 60 | 246 | 7.0 | 21.0 | 0.00 | 0.09 | 0.01 | 37 | 1014.2 |
| 20260506195543 | 59 | 227 | 7.0 | 21.0 | 0.00 | 0.09 | 0.01 | 39 | 1014.3 |
| 20260506195042 | 59 | 254 | 10.0 | 16.0 | 0.00 | 0.09 | 0.01 | 37 | 1014.3 |
| 20260506194557 | 59 | 259 | 9.0 | 19.0 | 0.00 | 0.09 | 0.01 | 37 | 1014.3 |
| 20260506194045 | 60 | 245 | 9.0 | 19.0 | 0.00 | 0.09 | 0.01 | 37 | 1014.3 |
| 20260506193542 | 60 | 259 | 11.0 | 19.0 | 0.00 | 0.09 | 0.01 | 37 | 1014.3 |
| 20260506193044 | 60 | 127 | 9.0 | 19.0 | 0.00 | 0.09 | 0.01 | 37 | 1014.3 |
| 20260506192543 | 60 | 208 | 10.0 | 19.0 | 0.00 | 0.09 | 0.01 | 38 | 1014.5 |
| 20260506192042 | 60 | 279 | 8.0 | 21.0 | 0.00 | 0.09 | 0.01 | 39 | 1014.3 |
| 20260506191548 | 59 | 250 | 8.0 | 21.0 | 0.00 | 0.09 | 0.01 | 40 | 1014.4 |
| 20260506191044 | 58 | 252 | 10.0 | 21.0 | 0.00 | 0.09 | 0.01 | 40 | 1014.6 |
| 20260506190542 | 57 | 289 | 12.0 | 21.0 | 0.00 | 0.09 | 0.01 | 41 | 1014.4 |
| 20260506190050 | 57 | 266 | 13.0 | 21.0 | 0.00 | 0.09 | 0.01 | 42 | 1014.4 |
| 20260506185541 | 56 | 292 | 11.0 | 20.0 | 0.00 | 0.09 | 0.01 | 43 | 1014.4 |
| 20260506185045 | 56 | 247 | 8.0 | 21.0 | 0.00 | 0.09 | 0.01 | 44 | 1014.5 |
| 20260506184603 | 56 | 196 | 10.0 | 21.0 | 0.00 | 0.09 | 0.01 | 43 | 1014.4 |
| 20260506184041 | 57 | 234 | 8.0 | 19.0 | 0.00 | 0.09 | 0.01 | 43 | 1014.5 |
| 20260506183542 | 57 | 222 | 9.0 | 19.0 | 0.00 | 0.09 | 0.01 | 42 | 1014.6 |
| 20260506183058 | 58 | 243 | 9.0 | 19.0 | 0.00 | 0.09 | 0.01 | 41 | 1014.7 |
| 20260506182541 | 58 | 184 | 8.0 | 19.0 | 0.00 | 0.09 | 0.01 | 41 | 1014.6 |
| 20260506182045 | 59 | 187 | 10.0 | 17.0 | 0.00 | 0.09 | 0.01 | 39 | 1014.7 |
| 20260506181549 | 59 | 188 | 8.0 | 18.0 | 0.00 | 0.09 | 0.01 | 39 | 1014.7 |
| 20260506181042 | 59 | 286 | 8.0 | 19.0 | 0.00 | 0.09 | 0.01 | 42 | 1014.8 |
| 20260506180543 | 59 | 246 | 8.0 | 20.0 | 0.00 | 0.09 | 0.01 | 41 | 1014.8 |
| 20260506180049 | 59 | 225 | 10.0 | 22.0 | 0.00 | 0.09 | 0.01 | 44 | 1014.9 |
| 20260506175544 | 59 | 143 | 7.0 | 23.0 | 0.00 | 0.09 | 0.01 | 44 | 1015.0 |
| 20260506175042 | 58 | 195 | 9.0 | 23.0 | 0.00 | 0.09 | 0.01 | 44 | 1015.1 |
| 20260506174551 | 58 | 207 | 9.0 | 20.0 | 0.00 | 0.09 | 0.01 | 46 | 1015.1 |
| 20260506174044 | 57 | 223 | 11.0 | 19.0 | 0.00 | 0.09 | 0.01 | 45 | 1015.1 |
| 20260506173542 | 57 | 237 | 9.0 | 19.0 | 0.00 | 0.09 | 0.01 | 48 | 1015.0 |
| 20260506173054 | 56 | 209 | 8.0 | 18.0 | 0.00 | 0.09 | 0.01 | 47 | 1015.0 |
| 20260506172544 | 56 | 230 | 8.0 | 16.0 | 0.00 | 0.09 | 0.01 | 47 | 1015.1 |
| 20260506172044 | 56 | 267 | 8.0 | 17.0 | 0.00 | 0.09 | 0.01 | 48 | 1015.1 |
| 20260506171552 | 55 | 182 | 7.0 | 17.0 | 0.00 | 0.09 | 0.01 | 49 | 1015.1 |
| 20260506171044 | 55 | 281 | 8.0 | 17.0 | 0.00 | 0.09 | 0.01 | 48 | 1015.1 |
| 20260506170542 | 55 | 183 | 7.0 | 14.0 | 0.00 | 0.09 | 0.01 | 49 | 1015.1 |
| 20260506170107 | 55 | 256 | 7.0 | 15.0 | 0.00 | 0.09 | 0.01 | 48 | 1015.2 |
| 20260506165545 | 55 | 225 | 7.0 | 15.0 | 0.00 | 0.09 | 0.01 | 50 | 1015.0 |
| 20260506165046 | 54 | 221 | 7.0 | 13.0 | 0.00 | 0.09 | 0.01 | 50 | 1014.8 |
| 20260506164549 | 53 | 174 | 3.0 | 11.0 | 0.00 | 0.09 | 0.01 | 53 | 1014.9 |
| 20260506164041 | 52 | 201 | 6.0 | 11.0 | 0.00 | 0.09 | 0.01 | 53 | 1014.9 |
| 20260506163541 | 52 | 199 | 6.0 | 12.0 | 0.00 | 0.09 | 0.01 | 53 | 1014.8 |
| 20260506163104 | 52 | 194 | 5.0 | 13.0 | 0.00 | 0.09 | 0.01 | 54 | 1015.0 |
| 20260506162541 | 52 | 229 | 7.0 | 13.0 | 0.00 | 0.09 | 0.01 | 54 | 1015.1 |
| 20260506162041 | 52 | 189 | 8.0 | 13.0 | 0.00 | 0.09 | 0.01 | 54 | 1015.1 |
| 20260506161547 | 52 | 192 | 4.0 | 10.0 | 0.00 | 0.09 | 0.01 | 57 | 1015.1 |
| 20260506161041 | 51 | 193 | 4.0 | 10.0 | 0.00 | 0.09 | 0.01 | 58 | 1015.1 |
| 20260506160541 | 50 | 209 | 5.0 | 12.0 | 0.00 | 0.09 | 0.01 | 60 | 1015.1 |
| 20260506160051 | 49 | 210 | 5.0 | 12.0 | 0.00 | 0.09 | 0.01 | 62 | 1015.1 |
| 20260506155541 | 49 | 240 | 3.0 | 12.0 | 0.00 | 0.09 | 0.01 | 63 | 1015.1 |
| 20260506155041 | 48 | 221 | 5.0 | 13.0 | 0.00 | 0.09 | 0.01 | 64 | 1015.2 |
| 20260506154551 | 48 | 205 | 7.0 | 13.0 | 0.00 | 0.09 | 0.01 | 63 | 1015.2 |
| 20260506154042 | 47 | 234 | 4.0 | 12.0 | 0.00 | 0.09 | 0.01 | 68 | 1015.1 |
| 20260506153542 | 47 | 220 | 5.0 | 17.0 | 0.00 | 0.09 | 0.01 | 67 | 1015.2 |
| 20260506153050 | 47 | 233 | 7.0 | 17.0 | 0.00 | 0.09 | 0.01 | 68 | 1015.3 |
| 20260506152542 | 46 | 200 | 5.0 | 16.0 | 0.00 | 0.09 | 0.01 | 69 | 1015.3 |
| 20260506152042 | 46 | 209 | 6.0 | 16.0 | 0.00 | 0.09 | 0.01 | 70 | 1015.4 |
| 20260506151552 | 45 | 227 | 6.0 | 12.0 | 0.00 | 0.09 | 0.01 | 70 | 1015.4 |
| 20260506151046 | 45 | 229 | 6.0 | 12.0 | 0.00 | 0.09 | 0.01 | 71 | 1015.3 |
| 20260506150542 | 45 | 201 | 7.0 | 13.0 | 0.00 | 0.09 | 0.01 | 71 | 1015.3 |
| 20260506150047 | 44 | 223 | 5.0 | 13.0 | 0.00 | 0.09 | 0.01 | 72 | 1015.4 |
| 20260506145544 | 44 | 200 | 5.0 | 13.0 | 0.00 | 0.09 | 0.01 | 72 | 1015.3 |
| 20260506145044 | 43 | 192 | 7.0 | 13.0 | 0.00 | 0.09 | 0.01 | 72 | 1015.3 |
| 20260506144601 | 43 | 191 | 6.0 | 13.0 | 0.00 | 0.09 | 0.01 | 75 | 1015.3 |
| 20260506144041 | 43 | 242 | 6.0 | 13.0 | 0.00 | 0.09 | 0.01 | 75 | 1015.3 |
| 20260506143542 | 42 | 236 | 6.0 | 12.0 | 0.00 | 0.09 | 0.01 | 78 | 1015.2 |
| 20260506143045 | 41 | 206 | 5.0 | 12.0 | 0.00 | 0.09 | 0.01 | 79 | 1015.1 |
| 20260506142541 | 40 | 204 | 5.0 | 9.0 | 0.00 | 0.09 | 0.01 | 82 | 1015.1 |
| 20260506142041 | 39 | 183 | 4.0 | 8.0 | 0.00 | 0.09 | 0.01 | 84 | 1015.1 |
| 20260506141550 | 39 | 221 | 3.0 | 8.0 | 0.00 | 0.09 | 0.01 | 84 | 1015.1 |
| 20260506141042 | 38 | 207 | 2.0 | 8.0 | 0.00 | 0.09 | 0.01 | 84 | 1015.2 |
| 20260506140542 | 38 | 211 | 4.0 | 8.0 | 0.00 | 0.09 | 0.01 | 86 | 1015.2 |
| 20260506140048 | 38 | 206 | 2.0 | 6.0 | 0.00 | 0.09 | 0.01 | 87 | 1015.3 |
| 20260506135541 | 38 | 226 | 1.0 | 6.0 | 0.00 | 0.09 | 0.01 | 88 | 1015.2 |
| 20260506135041 | 37 | 169 | 2.0 | 6.0 | 0.00 | 0.09 | 0.01 | 88 | 1015.2 |
| 20260506134553 | 37 | 144 | 1.0 | 5.0 | 0.00 | 0.09 | 0.01 | 88 | 1015.2 |
| 20260506134041 | 37 | 193 | 1.0 | 4.0 | 0.00 | 0.09 | 0.01 | 88 | 1015.1 |
| 20260506133540 | 37 | 140 | 1.0 | 4.0 | 0.00 | 0.09 | 0.01 | 88 | 1015.1 |
| 20260506133053 | 36 | 140 | 2.0 | 4.0 | 0.00 | 0.09 | 0.01 | 88 | 1015.1 |
| 20260506132541 | 36 | 140 | 1.0 | 5.0 | 0.00 | 0.09 | 0.01 | 88 | 1015.0 |
| 20260506132046 | 36 | 140 | 2.0 | 5.0 | 0.00 | 0.09 | 0.01 | 88 | 1014.8 |
| 20260506131549 | 36 | 139 | 2.0 | 6.0 | 0.00 | 0.09 | 0.01 | 88 | 1014.9 |
| 20260506131041 | 35 | 251 | 2.0 | 6.0 | 0.00 | 0.09 | 0.01 | 88 | 1014.8 |
| 20260506130542 | 35 | 157 | 1.0 | 5.0 | 0.00 | 0.09 | 0.01 | 87 | 1014.7 |
| 20260506130050 | 35 | 170 | 2.0 | 6.0 | 0.00 | 0.09 | 0.01 | 87 | 1014.8 |
| 20260506125543 | 35 | 147 | 2.0 | 6.0 | 0.00 | 0.09 | 0.01 | 87 | 1014.7 |
| 20260506125041 | 35 | 170 | 2.0 | 6.0 | 0.00 | 0.09 | 0.01 | 86 | 1014.7 |
| 20260506124549 | 35 | 161 | 4.0 | 6.0 | 0.00 | 0.09 | 0.01 | 86 | 1014.6 |
| 20260506124042 | 35 | 149 | 1.0 | 4.0 | 0.00 | 0.09 | 0.01 | 86 | 1014.5 |
| 20260506123541 | 35 | 150 | 1.0 | 5.0 | 0.00 | 0.09 | 0.01 | 86 | 1014.6 |
| 20260506123049 | 35 | 150 | 1.0 | 6.0 | 0.00 | 0.09 | 0.01 | 86 | 1014.6 |
| 20260506122543 | 35 | 150 | 2.0 | 6.0 | 0.00 | 0.09 | 0.01 | 85 | 1014.4 |
| 20260506122041 | 35 | 150 | 2.0 | 5.0 | 0.00 | 0.09 | 0.01 | 85 | 1014.4 |
| 20260506121556 | 36 | 130 | 2.0 | 4.0 | 0.00 | 0.09 | 0.01 | 85 | 1014.2 |
| 20260506121041 | 36 | 189 | 1.0 | 4.0 | 0.00 | 0.09 | 0.01 | 84 | 1014.4 |
| 20260506120542 | 36 | 189 | 1.0 | 7.0 | 0.00 | 0.09 | 0.01 | 84 | 1014.4 |
| 20260506120050 | 36 | 189 | 2.0 | 9.0 | 0.00 | 0.09 | 0.01 | 83 | 1014.3 |
| 20260506115541 | 36 | 210 | 4.0 | 9.0 | 0.00 | 0.09 | 0.01 | 83 | 1014.1 |
| 20260506115041 | 36 | 254 | 3.0 | 9.0 | 0.00 | 0.09 | 0.01 | 83 | 1013.8 |
| 20260506114552 | 36 | 273 | 3.0 | 10.0 | 0.00 | 0.09 | 0.01 | 83 | 1013.9 |
| 20260506114041 | 36 | 259 | 4.0 | 10.0 | 0.00 | 0.09 | 0.01 | 83 | 1013.9 |
| 20260506113541 | 36 | 250 | 4.0 | 8.0 | 0.00 | 0.09 | 0.01 | 83 | 1013.9 |
| 20260506113056 | 36 | 244 | 3.0 | 9.0 | 0.00 | 0.09 | 0.01 | 83 | 1013.9 |
| 20260506112542 | 36 | 265 | 4.0 | 9.0 | 0.00 | 0.09 | 0.01 | 83 | 1013.8 |
| 20260506112041 | 36 | 240 | 4.0 | 10.0 | 0.00 | 0.09 | 0.01 | 83 | 1013.7 |
| 20260506111550 | 36 | 226 | 4.0 | 10.0 | 0.00 | 0.09 | 0.01 | 83 | 1013.7 |
| 20260506111042 | 36 | 224 | 5.0 | 9.0 | 0.00 | 0.09 | 0.01 | 82 | 1013.7 |
| 20260506110545 | 36 | 207 | 3.0 | 8.0 | 0.00 | 0.09 | 0.01 | 82 | 1013.8 |
| 20260506110054 | 36 | 228 | 3.0 | 7.0 | 0.00 | 0.09 | 0.01 | 82 | 1013.9 |
| 20260506105542 | 36 | 232 | 3.0 | 7.0 | 0.00 | 0.09 | 0.01 | 83 | 1014.0 |
| 20260506105042 | 36 | 234 | 2.0 | 6.0 | 0.00 | 0.09 | 0.01 | 83 | 1014.0 |
| 20260506104550 | 36 | 242 | 3.0 | 8.0 | 0.00 | 0.09 | 0.01 | 82 | 1013.9 |
| 20260506104041 | 36 | 242 | 3.0 | 8.0 | 0.00 | 0.09 | 0.01 | 83 | 1014.0 |
| 20260506103542 | 36 | 250 | 3.0 | 8.0 | 0.00 | 0.09 | 0.01 | 83 | 1013.9 |
| 20260506103055 | 36 | 242 | 2.0 | 4.0 | 0.00 | 0.09 | 0.01 | 83 | 1013.9 |
| 20260506102542 | 36 | 229 | 1.0 | 8.0 | 0.00 | 0.09 | 0.01 | 83 | 1014.0 |
| 20260506102041 | 36 | 223 | 3.0 | 8.0 | 0.00 | 0.09 | 0.01 | 83 | 1014.0 |
| 20260506101552 | 36 | 222 | 1.0 | 5.0 | 0.00 | 0.09 | 0.01 | 83 | 1014.0 |
| 20260506101042 | 36 | 274 | 1.0 | 5.0 | 0.00 | 0.09 | 0.01 | 84 | 1014.0 |
| 20260506100542 | 36 | 229 | 2.0 | 5.0 | 0.00 | 0.09 | 0.01 | 84 | 1014.0 |
| 20260506100049 | 37 | 240 | 1.0 | 4.0 | 0.00 | 0.09 | 0.01 | 84 | 1014.1 |
| 20260506095542 | 37 | 240 | 1.0 | 3.0 | 0.00 | 0.09 | 0.01 | 85 | 1014.1 |
| 20260506095042 | 37 | 240 | 0.0 | 8.0 | 0.00 | 0.09 | 0.01 | 85 | 1014.1 |
| 20260506094547 | 37 | 240 | 2.0 | 8.0 | 0.00 | 0.09 | 0.01 | 85 | 1014.1 |
| 20260506094041 | 37 | 234 | 2.0 | 6.0 | 0.00 | 0.09 | 0.01 | 86 | 1014.1 |
| 20260506093543 | 37 | 227 | 1.0 | 5.0 | 0.00 | 0.09 | 0.01 | 87 | 1014.0 |
| 20260506093049 | 37 | 205 | 1.0 | 8.0 | 0.01 | 0.09 | 0.01 | 87 | 1014.1 |
| 20260506092543 | 37 | 193 | 3.0 | 8.0 | 0.01 | 0.09 | 0.01 | 88 | 1014.0 |
| 20260506092043 | 36 | 236 | 3.0 | 6.0 | 0.01 | 0.09 | 0.01 | 88 | 1014.0 |
| 20260506091549 | 36 | 184 | 2.0 | 6.0 | 0.01 | 0.09 | 0.01 | 88 | 1014.0 |
| 20260506091043 | 37 | 148 | 2.0 | 3.0 | 0.01 | 0.09 | 0.01 | 88 | 1014.0 |
| 20260506090543 | 37 | 148 | 1.0 | 3.0 | 0.01 | 0.09 | 0.01 | 89 | 1013.9 |
| 20260506090056 | 37 | 148 | 2.0 | 3.0 | 0.01 | 0.09 | 0.01 | 89 | 1014.0 |
| 20260506085543 | 37 | 148 | 1.0 | 5.0 | 0.01 | 0.09 | 0.01 | 89 | 1014.0 |
| 20260506085043 | 37 | 148 | 1.0 | 5.0 | 0.01 | 0.09 | 0.01 | 89 | 1013.9 |
| 20260506084609 | 37 | 148 | 1.0 | 3.0 | 0.01 | 0.09 | 0.01 | 89 | 1013.8 |
| 20260506084043 | 37 | 0 | 1.0 | 3.0 | 0.01 | 0.09 | 0.01 | 88 | 1013.8 |
| 20260506083543 | 37 | 148 | 1.0 | 3.0 | 0.01 | 0.09 | 0.01 | 88 | 1013.8 |
| 20260506083047 | 37 | 148 | 1.0 | 5.0 | 0.00 | 0.08 | 0.00 | 88 | 1013.8 |
| 20260506082544 | 37 | 0 | 1.0 | 6.0 | 0.00 | 0.08 | 0.00 | 88 | 1013.9 |
| 20260506082042 | 37 | 148 | 1.0 | 6.0 | 0.00 | 0.08 | 0.00 | 88 | 1013.8 |
| 20260506081549 | 38 | 148 | 2.0 | 8.0 | 0.00 | 0.08 | 0.00 | 88 | 1013.8 |
| 20260506081043 | 38 | 157 | 3.0 | 9.0 | 0.00 | 0.08 | 0.00 | 88 | 1014.0 |
| 20260506080545 | 38 | 178 | 3.0 | 9.0 | 0.00 | 0.08 | 0.00 | 88 | 1014.0 |
| 20260506073058 | 38 | 180 | 2.0 | 5.0 | 0.00 | 0.08 | 0.00 | 88 | 1014.4 |
| 20260506072542 | 39 | 180 | 1.0 | 5.0 | 0.00 | 0.08 | 0.00 | 88 | 1014.4 |
| 20260506072043 | 39 | 180 | 1.0 | 4.0 | 0.00 | 0.08 | 0.00 | 87 | 1014.4 |
| 20260506071553 | 39 | 180 | 2.0 | 4.0 | 0.00 | 0.08 | 0.00 | 87 | 1014.3 |
| 20260506071042 | 39 | 180 | 1.0 | 4.0 | 0.00 | 0.08 | 0.00 | 88 | 1014.3 |
| 20260506070545 | 39 | 180 | 2.0 | 7.0 | 0.00 | 0.08 | 0.00 | 87 | 1014.2 |